Year,Month,Day,Hour,Minute,Value (Times are PST for temperature in C)
2014,09,16,00,00,17.50
2014,09,16,00,01,17.50
2014,09,16,00,02,17.40
2014,09,16,00,03,17.40
2014,09,16,00,04,17.30
2014,09,16,00,05,17.30
2014,09,16,00,06,17.30
2014,09,16,00,07,17.30
2014,09,16,00,08,17.30
2014,09,16,00,09,17.30
2014,09,16,00,10,17.30
2014,09,16,00,11,17.20
2014,09,16,00,12,17.20
2014,09,16,00,13,17.20
2014,09,16,00,14,17.20
2014,09,16,00,15,17.20
2014,09,16,00,16,17.20
2014,09,16,00,17,17.20
2014,09,16,00,18,17.20
2014,09,16,00,19,17.20
2014,09,16,00,20,17.20
2014,09,16,00,21,17.30
2014,09,16,00,22,17.30
2014,09,16,00,23,17.30
2014,09,16,00,24,17.30
2014,09,16,00,25,17.30
2014,09,16,00,26,17.30
2014,09,16,00,27,17.40
2014,09,16,00,28,17.40
2014,09,16,00,29,17.30
2014,09,16,00,30,17.30
2014,09,16,00,31,17.30
2014,09,16,00,32,17.30
2014,09,16,00,33,17.30
2014,09,16,00,34,17.30
2014,09,16,00,35,17.30
2014,09,16,00,36,17.30
2014,09,16,00,37,17.20
2014,09,16,00,38,17.20
2014,09,16,00,39,17.10
2014,09,16,00,40,17.10
2014,09,16,00,41,17.00
2014,09,16,00,42,17.00
2014,09,16,00,43,16.90
2014,09,16,00,44,16.90
2014,09,16,00,45,16.90
2014,09,16,00,46,17.00
2014,09,16,00,47,17.00
2014,09,16,00,48,17.00
2014,09,16,00,49,17.00
2014,09,16,00,50,17.00
2014,09,16,00,51,17.10
2014,09,16,00,52,17.10
2014,09,16,00,53,17.10
2014,09,16,00,54,17.10
2014,09,16,00,55,17.10
2014,09,16,00,56,17.10
2014,09,16,00,57,17.10
2014,09,16,00,58,17.10
2014,09,16,00,59,17.10
2014,09,16,01,00,17.00
2014,09,16,01,01,17.00
2014,09,16,01,02,17.00
2014,09,16,01,03,16.90
2014,09,16,01,04,16.90
2014,09,16,01,05,16.80
2014,09,16,01,06,16.80
2014,09,16,01,07,16.80
2014,09,16,01,08,16.80
2014,09,16,01,09,16.70
2014,09,16,01,10,16.70
2014,09,16,01,11,16.70
2014,09,16,01,12,16.70
2014,09,16,01,13,16.70
2014,09,16,01,14,16.70
2014,09,16,01,15,16.70
2014,09,16,01,16,16.70
2014,09,16,01,17,16.70
2014,09,16,01,18,16.70
2014,09,16,01,19,16.60
2014,09,16,01,20,16.60
2014,09,16,01,21,16.60
2014,09,16,01,22,16.60
2014,09,16,01,23,16.50
2014,09,16,01,24,16.40
2014,09,16,01,25,16.40
2014,09,16,01,26,16.40
2014,09,16,01,27,16.40
2014,09,16,01,28,16.30
2014,09,16,01,29,16.30
2014,09,16,01,30,16.20
2014,09,16,01,31,16.20
2014,09,16,01,32,16.10
2014,09,16,01,33,16.10
2014,09,16,01,34,16.10
2014,09,16,01,35,16.00
2014,09,16,01,36,15.90
2014,09,16,01,37,15.90
2014,09,16,01,38,15.80
2014,09,16,01,39,15.80
2014,09,16,01,40,15.80
2014,09,16,01,41,15.80
2014,09,16,01,42,15.80
2014,09,16,01,43,15.80
2014,09,16,01,44,15.80
2014,09,16,01,45,15.70
2014,09,16,01,46,15.70
2014,09,16,01,47,15.70
2014,09,16,01,48,15.80
2014,09,16,01,49,15.80
2014,09,16,01,50,15.80
2014,09,16,01,51,15.80
2014,09,16,01,52,15.80
2014,09,16,01,53,15.70
2014,09,16,01,54,15.70
2014,09,16,01,55,15.70
2014,09,16,01,56,15.70
2014,09,16,01,57,15.70
2014,09,16,01,58,15.70
2014,09,16,01,59,15.70
2014,09,16,02,00,15.70
2014,09,16,02,01,15.80
2014,09,16,02,02,15.80
2014,09,16,02,03,15.80
2014,09,16,02,04,15.80
2014,09,16,02,05,15.90
2014,09,16,02,06,15.90
2014,09,16,02,07,16.10
2014,09,16,02,08,16.10
2014,09,16,02,09,16.10
2014,09,16,02,10,16.20
2014,09,16,02,11,16.30
2014,09,16,02,12,16.30
2014,09,16,02,13,16.40
2014,09,16,02,14,16.40
2014,09,16,02,15,16.40
2014,09,16,02,16,16.50
2014,09,16,02,17,16.60
2014,09,16,02,18,16.60
2014,09,16,02,19,16.60
2014,09,16,02,20,16.60
2014,09,16,02,21,16.60
2014,09,16,02,22,16.50
2014,09,16,02,23,16.40
2014,09,16,02,24,16.40
2014,09,16,02,25,16.40
2014,09,16,02,26,16.40
2014,09,16,02,27,16.40
2014,09,16,02,28,16.30
2014,09,16,02,29,16.30
2014,09,16,02,30,16.20
2014,09,16,02,31,16.20
2014,09,16,02,32,16.10
2014,09,16,02,33,16.10
2014,09,16,02,34,16.00
2014,09,16,02,35,15.90
2014,09,16,02,36,15.80
2014,09,16,02,37,15.80
2014,09,16,02,38,15.70
2014,09,16,02,39,15.70
2014,09,16,02,40,15.60
2014,09,16,02,41,15.50
2014,09,16,02,42,15.50
2014,09,16,02,43,15.40
2014,09,16,02,44,15.30
2014,09,16,02,45,15.30
2014,09,16,02,46,15.20
2014,09,16,02,47,15.10
2014,09,16,02,48,15.10
2014,09,16,02,49,15.00
2014,09,16,02,50,15.00
2014,09,16,02,51,14.90
2014,09,16,02,52,14.80
2014,09,16,02,53,14.80
2014,09,16,02,54,14.80
2014,09,16,02,55,14.80
2014,09,16,02,56,14.80
2014,09,16,02,57,14.70
2014,09,16,02,58,14.70
2014,09,16,02,59,14.70
2014,09,16,03,00,14.70
2014,09,16,03,01,14.70
2014,09,16,03,02,14.60
2014,09,16,03,03,14.60
2014,09,16,03,04,14.60
2014,09,16,03,05,14.60
2014,09,16,03,06,14.60
2014,09,16,03,07,14.60
2014,09,16,03,08,14.60
2014,09,16,03,09,14.60
2014,09,16,03,10,14.60
2014,09,16,03,11,14.60
2014,09,16,03,12,14.60
2014,09,16,03,13,14.60
2014,09,16,03,14,14.60
2014,09,16,03,15,14.60
2014,09,16,03,16,14.50
2014,09,16,03,17,14.50
2014,09,16,03,18,14.40
2014,09,16,03,19,14.40
2014,09,16,03,20,14.40
2014,09,16,03,21,14.40
2014,09,16,03,22,14.30
2014,09,16,03,23,14.30
2014,09,16,03,24,14.30
2014,09,16,03,25,14.30
2014,09,16,03,26,14.30
2014,09,16,03,27,14.30
2014,09,16,03,28,14.30
2014,09,16,03,29,14.30
2014,09,16,03,30,14.30
2014,09,16,03,31,14.30
2014,09,16,03,32,14.30
2014,09,16,03,33,14.30
2014,09,16,03,34,14.30
2014,09,16,03,35,14.40
2014,09,16,03,36,14.40
2014,09,16,03,37,14.40
2014,09,16,03,38,14.40
2014,09,16,03,39,14.40
2014,09,16,03,40,14.40
2014,09,16,03,41,14.40
2014,09,16,03,42,14.50
2014,09,16,03,43,14.40
2014,09,16,03,44,14.40
2014,09,16,03,45,14.40
2014,09,16,03,46,14.40
2014,09,16,03,47,14.30
2014,09,16,03,48,14.30
2014,09,16,03,49,14.20
2014,09,16,03,50,14.20
2014,09,16,03,51,14.20
2014,09,16,03,52,14.10
2014,09,16,03,53,14.10
2014,09,16,03,54,14.00
2014,09,16,03,55,14.00
2014,09,16,03,56,14.00
2014,09,16,03,57,14.00
2014,09,16,03,58,14.00
2014,09,16,03,59,14.00
2014,09,16,04,00,14.00
2014,09,16,04,01,13.90
2014,09,16,04,02,13.90
2014,09,16,04,03,13.90
2014,09,16,04,04,13.90
2014,09,16,04,05,13.90
2014,09,16,04,06,13.90
2014,09,16,04,07,13.90
2014,09,16,04,08,13.90
2014,09,16,04,09,13.90
2014,09,16,04,10,14.00
2014,09,16,04,11,14.00
2014,09,16,04,12,14.00
2014,09,16,04,13,14.00
2014,09,16,04,14,14.10
2014,09,16,04,15,14.20
2014,09,16,04,16,14.30
2014,09,16,04,17,14.40
2014,09,16,04,18,14.50
2014,09,16,04,19,14.50
2014,09,16,04,20,14.60
2014,09,16,04,21,14.60
2014,09,16,04,22,14.70
2014,09,16,04,23,14.80
2014,09,16,04,24,14.80
2014,09,16,04,25,14.80
2014,09,16,04,26,14.90
2014,09,16,04,27,14.90
2014,09,16,04,28,14.90
2014,09,16,04,29,14.90
2014,09,16,04,30,14.90
2014,09,16,04,31,14.90
2014,09,16,04,32,14.90
2014,09,16,04,33,14.90
2014,09,16,04,34,14.90
2014,09,16,04,35,15.00
2014,09,16,04,36,15.00
2014,09,16,04,37,15.00
2014,09,16,04,38,15.00
2014,09,16,04,39,15.00
2014,09,16,04,40,15.00
2014,09,16,04,41,15.00
2014,09,16,04,42,15.10
2014,09,16,04,43,15.10
2014,09,16,04,44,15.10
2014,09,16,04,45,15.10
2014,09,16,04,46,15.10
2014,09,16,04,47,15.00
2014,09,16,04,48,15.00
2014,09,16,04,49,15.00
2014,09,16,04,50,15.00
2014,09,16,04,51,14.90
2014,09,16,04,52,14.90
2014,09,16,04,53,14.90
2014,09,16,04,54,14.80
2014,09,16,04,55,14.80
2014,09,16,04,56,14.80
2014,09,16,04,57,14.80
2014,09,16,04,58,14.80
2014,09,16,04,59,14.80
2014,09,16,05,00,14.80
2014,09,16,05,01,14.80
2014,09,16,05,02,14.80
2014,09,16,05,03,14.80
2014,09,16,05,04,14.80
2014,09,16,05,05,14.80
2014,09,16,05,06,14.80
2014,09,16,05,07,14.70
2014,09,16,05,08,14.70
2014,09,16,05,09,14.70
2014,09,16,05,10,14.60
2014,09,16,05,11,14.60
2014,09,16,05,12,14.60
2014,09,16,05,13,14.50
2014,09,16,05,14,14.50
2014,09,16,05,15,14.40
2014,09,16,05,16,14.40
2014,09,16,05,17,14.30
2014,09,16,05,18,14.30
2014,09,16,05,19,14.20
2014,09,16,05,20,14.20
2014,09,16,05,21,14.20
2014,09,16,05,22,14.20
2014,09,16,05,23,14.20
2014,09,16,05,24,14.20
2014,09,16,05,25,14.20
2014,09,16,05,26,14.20
2014,09,16,05,27,14.20
2014,09,16,05,28,14.20
2014,09,16,05,29,14.20
2014,09,16,05,30,14.20
2014,09,16,05,31,14.20
2014,09,16,05,32,14.30
2014,09,16,05,33,14.30
2014,09,16,05,34,14.30
2014,09,16,05,35,14.30
2014,09,16,05,36,14.40
2014,09,16,05,37,14.40
2014,09,16,05,38,14.40
2014,09,16,05,39,14.40
2014,09,16,05,40,14.50
2014,09,16,05,41,14.50
2014,09,16,05,42,14.50
2014,09,16,05,43,14.40
2014,09,16,05,44,14.40
2014,09,16,05,45,14.30
2014,09,16,05,46,14.20
2014,09,16,05,47,14.20
2014,09,16,05,48,14.20
2014,09,16,05,49,14.20
2014,09,16,05,50,14.20
2014,09,16,05,51,14.20
2014,09,16,05,52,14.20
2014,09,16,05,53,14.20
2014,09,16,05,54,14.20
2014,09,16,05,55,14.20
2014,09,16,05,56,14.20
2014,09,16,05,57,14.20
2014,09,16,05,58,14.10
2014,09,16,05,59,14.10
2014,09,16,06,00,14.00
2014,09,16,06,01,14.00
2014,09,16,06,02,14.00
2014,09,16,06,03,13.90
2014,09,16,06,04,13.90
2014,09,16,06,05,13.90
2014,09,16,06,06,13.90
2014,09,16,06,07,13.80
2014,09,16,06,08,13.70
2014,09,16,06,09,13.70
2014,09,16,06,10,13.70
2014,09,16,06,11,13.70
2014,09,16,06,12,13.60
2014,09,16,06,13,13.50
2014,09,16,06,14,13.40
2014,09,16,06,15,13.30
2014,09,16,06,16,13.20
2014,09,16,06,17,13.10
2014,09,16,06,18,13.00
2014,09,16,06,19,12.90
2014,09,16,06,20,12.90
2014,09,16,06,21,12.80
2014,09,16,06,22,12.80
2014,09,16,06,23,12.70
2014,09,16,06,24,12.60
2014,09,16,06,25,12.60
2014,09,16,06,26,12.60
2014,09,16,06,27,12.50
2014,09,16,06,28,12.50
2014,09,16,06,29,12.40
2014,09,16,06,30,12.30
2014,09,16,06,31,12.30
2014,09,16,06,32,12.30
2014,09,16,06,33,12.20
2014,09,16,06,34,12.20
2014,09,16,06,35,12.20
2014,09,16,06,36,12.10
2014,09,16,06,37,12.10
2014,09,16,06,38,12.10
2014,09,16,06,39,12.10
2014,09,16,06,40,12.10
2014,09,16,06,41,12.10
2014,09,16,06,42,12.10
2014,09,16,06,43,12.10
2014,09,16,06,44,12.10
2014,09,16,06,45,12.00
2014,09,16,06,46,12.00
2014,09,16,06,47,12.00
2014,09,16,06,48,12.00
2014,09,16,06,49,12.00
2014,09,16,06,50,12.00
2014,09,16,06,51,12.00
2014,09,16,06,52,12.00
2014,09,16,06,53,12.00
2014,09,16,06,54,12.00
2014,09,16,06,55,11.90
2014,09,16,06,56,11.90
2014,09,16,06,57,11.90
2014,09,16,06,58,11.90
2014,09,16,06,59,12.00
2014,09,16,07,00,12.00
2014,09,16,07,01,12.00
2014,09,16,07,02,12.10
2014,09,16,07,03,12.10
2014,09,16,07,04,12.10
2014,09,16,07,05,12.20
2014,09,16,07,06,12.20
2014,09,16,07,07,12.20
2014,09,16,07,08,12.20
2014,09,16,07,09,12.20
2014,09,16,07,10,12.30
2014,09,16,07,11,12.30
2014,09,16,07,12,12.30
2014,09,16,07,13,12.30
2014,09,16,07,14,12.30
2014,09,16,07,15,12.30
2014,09,16,07,16,12.20
2014,09,16,07,17,12.20
2014,09,16,07,18,12.20
2014,09,16,07,19,12.20
2014,09,16,07,20,12.20
2014,09,16,07,21,12.20
2014,09,16,07,22,12.20
2014,09,16,07,23,12.10
2014,09,16,07,24,12.10
2014,09,16,07,25,12.10
2014,09,16,07,26,12.10
2014,09,16,07,27,12.00
2014,09,16,07,28,12.00
2014,09,16,07,29,12.00
2014,09,16,07,30,12.00
2014,09,16,07,31,12.00
2014,09,16,07,32,11.90
2014,09,16,07,33,11.90
2014,09,16,07,34,11.90
2014,09,16,07,35,11.80
2014,09,16,07,36,11.80
2014,09,16,07,37,11.80
2014,09,16,07,38,11.80
2014,09,16,07,39,11.80
2014,09,16,07,40,11.80
2014,09,16,07,41,11.80
2014,09,16,07,42,11.80
2014,09,16,07,43,11.80
2014,09,16,07,44,11.80
2014,09,16,07,45,11.80
2014,09,16,07,46,11.80
2014,09,16,07,47,11.80
2014,09,16,07,48,11.80
2014,09,16,07,49,11.90
2014,09,16,07,50,11.90
2014,09,16,07,51,11.80
2014,09,16,07,52,11.80
2014,09,16,07,53,11.80
2014,09,16,07,54,11.80
2014,09,16,07,55,11.80
2014,09,16,07,56,11.80
2014,09,16,07,57,11.80
2014,09,16,07,58,11.90
2014,09,16,07,59,11.90
2014,09,16,08,00,11.90
2014,09,16,08,01,11.90
2014,09,16,08,02,11.90
2014,09,16,08,03,12.00
2014,09,16,08,04,12.00
2014,09,16,08,05,12.10
2014,09,16,08,06,12.20
2014,09,16,08,07,12.30
2014,09,16,08,08,12.30
2014,09,16,08,09,12.40
2014,09,16,08,10,12.50
2014,09,16,08,11,12.60
2014,09,16,08,12,12.60
2014,09,16,08,13,12.80
2014,09,16,08,14,12.80
2014,09,16,08,15,12.80
2014,09,16,08,16,12.90
2014,09,16,08,17,12.90
2014,09,16,08,18,12.90
2014,09,16,08,19,13.00
2014,09,16,08,20,13.00
2014,09,16,08,21,13.10
2014,09,16,08,22,13.10
2014,09,16,08,23,13.20
2014,09,16,08,24,13.30
2014,09,16,08,25,13.30
2014,09,16,08,26,13.40
2014,09,16,08,27,13.50
2014,09,16,08,28,13.50
2014,09,16,08,29,13.60
2014,09,16,08,30,13.70
2014,09,16,08,31,13.80
2014,09,16,08,32,13.90
2014,09,16,08,33,13.90
2014,09,16,08,34,14.00
2014,09,16,08,35,14.10
2014,09,16,08,36,14.10
2014,09,16,08,37,14.10
2014,09,16,08,38,14.20
2014,09,16,08,39,14.20
2014,09,16,08,40,14.20
2014,09,16,08,41,14.30
2014,09,16,08,42,14.30
2014,09,16,08,43,14.30
2014,09,16,08,44,14.30
2014,09,16,08,45,14.30
2014,09,16,08,46,14.30
2014,09,16,08,47,14.30
2014,09,16,08,48,14.30
2014,09,16,08,49,14.40
2014,09,16,08,50,14.40
2014,09,16,08,51,14.50
2014,09,16,08,52,14.50
2014,09,16,08,53,14.60
2014,09,16,08,54,14.70
2014,09,16,08,55,14.70
2014,09,16,08,56,14.80
2014,09,16,08,57,14.80
2014,09,16,08,58,14.90
2014,09,16,08,59,15.00
2014,09,16,09,00,15.10
2014,09,16,09,01,15.20
2014,09,16,09,02,15.20
2014,09,16,09,03,15.30
2014,09,16,09,04,15.40
2014,09,16,09,05,15.50
2014,09,16,09,06,15.60
2014,09,16,09,07,15.60
2014,09,16,09,08,15.60
2014,09,16,09,09,15.50
2014,09,16,09,10,15.50
2014,09,16,09,11,15.50
2014,09,16,09,12,15.40
2014,09,16,09,13,15.40
2014,09,16,09,14,15.40
2014,09,16,09,15,15.30
2014,09,16,09,16,15.30
2014,09,16,09,17,15.30
2014,09,16,09,18,15.30
2014,09,16,09,19,15.30
2014,09,16,09,20,15.30
2014,09,16,09,21,15.30
2014,09,16,09,22,15.30
2014,09,16,09,23,15.30
2014,09,16,09,24,15.30
2014,09,16,09,25,15.30
2014,09,16,09,26,15.30
2014,09,16,09,27,15.30
2014,09,16,09,28,15.30
2014,09,16,09,29,15.30
2014,09,16,09,30,15.20
2014,09,16,09,31,15.10
2014,09,16,09,32,15.00
2014,09,16,09,33,14.90
2014,09,16,09,34,14.80
2014,09,16,09,35,14.80
2014,09,16,09,36,14.70
2014,09,16,09,37,14.70
2014,09,16,09,38,14.60
2014,09,16,09,39,14.50
2014,09,16,09,40,14.50
2014,09,16,09,41,14.40
2014,09,16,09,42,14.40
2014,09,16,09,43,14.40
2014,09,16,09,44,14.40
2014,09,16,09,45,14.40
2014,09,16,09,46,14.40
2014,09,16,09,47,14.50
2014,09,16,09,48,14.50
2014,09,16,09,49,14.60
2014,09,16,09,50,14.60
2014,09,16,09,51,14.70
2014,09,16,09,52,14.80
2014,09,16,09,53,14.80
2014,09,16,09,54,14.90
2014,09,16,09,55,15.00
2014,09,16,09,56,15.10
2014,09,16,09,57,15.10
2014,09,16,09,58,15.10
2014,09,16,09,59,15.20
2014,09,16,10,00,15.20
2014,09,16,10,01,15.30
2014,09,16,10,02,15.30
2014,09,16,10,03,15.40
2014,09,16,10,04,15.50
2014,09,16,10,05,15.50
2014,09,16,10,06,15.50
2014,09,16,10,07,15.50
2014,09,16,10,08,15.50
2014,09,16,10,09,15.50
2014,09,16,10,10,15.40
2014,09,16,10,11,15.40
2014,09,16,10,12,15.40
2014,09,16,10,13,15.50
2014,09,16,10,14,15.50
2014,09,16,10,15,15.50
2014,09,16,10,16,15.60
2014,09,16,10,17,15.60
2014,09,16,10,18,15.60
2014,09,16,10,19,15.70
2014,09,16,10,20,15.70
2014,09,16,10,21,15.80
2014,09,16,10,22,15.80
2014,09,16,10,23,15.80
2014,09,16,10,24,15.80
2014,09,16,10,25,15.80
2014,09,16,10,26,15.90
2014,09,16,10,27,16.00
2014,09,16,10,28,16.10
2014,09,16,10,29,16.10
2014,09,16,10,30,16.20
2014,09,16,10,31,16.30
2014,09,16,10,32,16.40
2014,09,16,10,33,16.40
2014,09,16,10,34,16.50
2014,09,16,10,35,16.60
2014,09,16,10,36,16.70
2014,09,16,10,37,16.80
2014,09,16,10,38,16.90
2014,09,16,10,39,17.10
2014,09,16,10,40,17.20
2014,09,16,10,41,17.30
2014,09,16,10,42,17.30
2014,09,16,10,43,17.30
2014,09,16,10,44,17.40
2014,09,16,10,45,17.40
2014,09,16,10,46,17.50
2014,09,16,10,47,17.60
2014,09,16,10,48,17.70
2014,09,16,10,49,17.80
2014,09,16,10,50,17.90
2014,09,16,10,51,18.00
2014,09,16,10,52,18.20
2014,09,16,10,53,18.30
2014,09,16,10,54,18.40
2014,09,16,10,55,18.50
2014,09,16,10,56,18.60
2014,09,16,10,57,18.60
2014,09,16,10,58,18.70
2014,09,16,10,59,18.70
2014,09,16,11,00,18.70
2014,09,16,11,01,18.70
2014,09,16,11,02,18.70
2014,09,16,11,03,18.80
2014,09,16,11,04,18.90
2014,09,16,11,05,19.00
2014,09,16,11,06,19.10
2014,09,16,11,07,19.30
2014,09,16,11,08,19.30
2014,09,16,11,09,19.20
2014,09,16,11,10,19.10
2014,09,16,11,11,19.10
2014,09,16,11,12,19.00
2014,09,16,11,13,18.90
2014,09,16,11,14,18.80
2014,09,16,11,15,18.70
2014,09,16,11,16,18.60
2014,09,16,11,17,18.60
2014,09,16,11,18,18.50
2014,09,16,11,19,18.50
2014,09,16,11,20,18.50
2014,09,16,11,21,18.60
2014,09,16,11,22,18.60
2014,09,16,11,23,18.60
2014,09,16,11,24,18.50
2014,09,16,11,25,18.20
2014,09,16,11,26,18.10
2014,09,16,11,27,17.80
2014,09,16,11,28,17.60
2014,09,16,11,29,17.50
2014,09,16,11,30,17.50
2014,09,16,11,31,17.50
2014,09,16,11,32,17.50
2014,09,16,11,33,17.60
2014,09,16,11,34,17.60
2014,09,16,11,35,17.70
2014,09,16,11,36,17.80
2014,09,16,11,37,17.90
2014,09,16,11,38,17.90
2014,09,16,11,39,17.90
2014,09,16,11,40,18.00
2014,09,16,11,41,18.20
2014,09,16,11,42,18.30
2014,09,16,11,43,18.50
2014,09,16,11,44,18.60
2014,09,16,11,45,18.80
2014,09,16,11,46,18.90
2014,09,16,11,47,19.10
2014,09,16,11,48,19.10
2014,09,16,11,49,19.00
2014,09,16,11,50,18.90
2014,09,16,11,51,18.90
2014,09,16,11,52,18.70
2014,09,16,11,53,18.60
2014,09,16,11,54,18.60
2014,09,16,11,55,18.70
2014,09,16,11,56,18.80
2014,09,16,11,57,19.00
2014,09,16,11,58,19.10
2014,09,16,11,59,19.10
2014,09,16,12,00,19.10
2014,09,16,12,01,18.90
2014,09,16,12,02,18.70
2014,09,16,12,03,18.70
2014,09,16,12,04,18.50
2014,09,16,12,05,18.50
2014,09,16,12,06,18.40
2014,09,16,12,07,18.30
2014,09,16,12,08,18.30
2014,09,16,12,09,18.10
2014,09,16,12,10,17.90
2014,09,16,12,11,17.90
2014,09,16,12,12,17.70
2014,09,16,12,13,17.60
2014,09,16,12,14,17.50
2014,09,16,12,15,17.30
2014,09,16,12,16,17.30
2014,09,16,12,17,17.30
2014,09,16,12,18,17.30
2014,09,16,12,19,17.20
2014,09,16,12,20,17.10
2014,09,16,12,21,17.00
2014,09,16,12,22,16.90
2014,09,16,12,23,16.90
2014,09,16,12,24,16.90
2014,09,16,12,25,16.90
2014,09,16,12,26,16.80
2014,09,16,12,27,16.90
2014,09,16,12,28,16.90
2014,09,16,12,29,16.90
2014,09,16,12,30,16.90
2014,09,16,12,31,16.90
2014,09,16,12,32,16.90
2014,09,16,12,33,16.80
2014,09,16,12,34,16.70
2014,09,16,12,35,16.70
2014,09,16,12,36,16.70
2014,09,16,12,37,16.70
2014,09,16,12,38,16.80
2014,09,16,12,39,16.90
2014,09,16,12,40,17.00
2014,09,16,12,41,17.10
2014,09,16,12,42,17.30
2014,09,16,12,43,17.30
2014,09,16,12,44,17.30
2014,09,16,12,45,17.40
2014,09,16,12,46,17.30
2014,09,16,12,47,17.30
2014,09,16,12,48,17.30
2014,09,16,12,49,17.30
2014,09,16,12,50,17.40
2014,09,16,12,51,17.40
2014,09,16,12,52,17.40
2014,09,16,12,53,17.50
2014,09,16,12,54,17.60
2014,09,16,12,55,17.70
2014,09,16,12,56,17.90
2014,09,16,12,57,18.00
2014,09,16,12,58,18.10
2014,09,16,12,59,18.20
2014,09,16,13,00,18.20
2014,09,16,13,01,18.30
2014,09,16,13,02,18.40
2014,09,16,13,03,18.40
2014,09,16,13,04,18.30
2014,09,16,13,05,18.30
2014,09,16,13,06,18.20
2014,09,16,13,07,18.20
2014,09,16,13,08,18.10
2014,09,16,13,09,18.00
2014,09,16,13,10,17.90
2014,09,16,13,11,17.80
2014,09,16,13,12,17.80
2014,09,16,13,13,17.80
2014,09,16,13,14,17.80
2014,09,16,13,15,17.80
2014,09,16,13,16,17.70
2014,09,16,13,17,17.60
2014,09,16,13,18,17.40
2014,09,16,13,19,17.30
2014,09,16,13,20,17.00
2014,09,16,13,21,16.80
2014,09,16,13,22,16.70
2014,09,16,13,23,16.50
2014,09,16,13,24,16.40
2014,09,16,13,25,16.40
2014,09,16,13,26,16.40
2014,09,16,13,27,16.40
2014,09,16,13,28,16.50
2014,09,16,13,29,16.60
2014,09,16,13,30,16.70
2014,09,16,13,31,16.70
2014,09,16,13,32,16.70
2014,09,16,13,33,16.70
2014,09,16,13,34,16.70
2014,09,16,13,35,16.80
2014,09,16,13,36,16.80
2014,09,16,13,37,16.90
2014,09,16,13,38,17.00
2014,09,16,13,39,17.10
2014,09,16,13,40,17.20
2014,09,16,13,41,17.30
2014,09,16,13,42,17.40
2014,09,16,13,43,17.40
2014,09,16,13,44,17.50
2014,09,16,13,45,17.60
2014,09,16,13,46,17.70
2014,09,16,13,47,17.70
2014,09,16,13,48,17.80
2014,09,16,13,49,17.80
2014,09,16,13,50,17.90
2014,09,16,13,51,17.90
2014,09,16,13,52,17.90
2014,09,16,13,53,17.90
2014,09,16,13,54,17.90
2014,09,16,13,55,18.00
2014,09,16,13,56,18.10
2014,09,16,13,57,18.20
2014,09,16,13,58,18.20
2014,09,16,13,59,18.40
2014,09,16,14,00,18.50
2014,09,16,14,01,18.70
2014,09,16,14,02,18.60
2014,09,16,14,03,18.40
2014,09,16,14,04,18.30
2014,09,16,14,05,18.30
2014,09,16,14,06,18.20
2014,09,16,14,07,17.90
2014,09,16,14,08,17.70
2014,09,16,14,09,17.50
2014,09,16,14,10,17.50
2014,09,16,14,11,17.60
2014,09,16,14,12,17.70
2014,09,16,14,13,17.80
2014,09,16,14,14,17.90
2014,09,16,14,15,18.10
2014,09,16,14,16,18.20
2014,09,16,14,17,18.40
2014,09,16,14,18,18.50
2014,09,16,14,19,18.60
2014,09,16,14,20,18.70
2014,09,16,14,21,18.80
2014,09,16,14,22,18.90
2014,09,16,14,23,19.00
2014,09,16,14,24,19.10
2014,09,16,14,25,19.10
2014,09,16,14,26,19.30
2014,09,16,14,27,19.40
2014,09,16,14,28,19.50
2014,09,16,14,29,19.50
2014,09,16,14,30,19.50
2014,09,16,14,31,19.50
2014,09,16,14,32,19.50
2014,09,16,14,33,19.60
2014,09,16,14,34,19.70
2014,09,16,14,35,19.80
2014,09,16,14,36,19.90
2014,09,16,14,37,19.90
2014,09,16,14,38,19.90
2014,09,16,14,39,19.80
2014,09,16,14,40,19.60
2014,09,16,14,41,19.40
2014,09,16,14,42,19.30
2014,09,16,14,43,19.10
2014,09,16,14,44,19.10
2014,09,16,14,45,19.10
2014,09,16,14,46,19.10
2014,09,16,14,47,19.10
2014,09,16,14,48,19.10
2014,09,16,14,49,19.10
2014,09,16,14,50,19.20
2014,09,16,14,51,19.20
2014,09,16,14,52,19.30
2014,09,16,14,53,19.50
2014,09,16,14,54,19.50
2014,09,16,14,55,19.50
2014,09,16,14,56,19.50
2014,09,16,14,57,19.60
2014,09,16,14,58,19.60
2014,09,16,14,59,19.50
2014,09,16,15,00,19.30
2014,09,16,15,01,19.00
2014,09,16,15,02,18.80
2014,09,16,15,03,18.60
2014,09,16,15,04,18.50
2014,09,16,15,05,18.50
2014,09,16,15,06,18.40
2014,09,16,15,07,18.40
2014,09,16,15,08,18.50
2014,09,16,15,09,18.50
2014,09,16,15,10,18.50
2014,09,16,15,11,18.30
2014,09,16,15,12,18.10
2014,09,16,15,13,17.90
2014,09,16,15,14,17.80
2014,09,16,15,15,17.70
2014,09,16,15,16,17.80
2014,09,16,15,17,17.80
2014,09,16,15,18,17.80
2014,09,16,15,19,17.90
2014,09,16,15,20,17.90
2014,09,16,15,21,17.90
2014,09,16,15,22,18.00
2014,09,16,15,23,18.10
2014,09,16,15,24,18.10
2014,09,16,15,25,18.10
2014,09,16,15,26,18.20
2014,09,16,15,27,18.30
2014,09,16,15,28,18.30
2014,09,16,15,29,18.20
2014,09,16,15,30,18.00
2014,09,16,15,31,17.70
2014,09,16,15,32,17.50
2014,09,16,15,33,17.40
2014,09,16,15,34,17.40
2014,09,16,15,35,17.40
2014,09,16,15,36,17.30
2014,09,16,15,37,17.30
2014,09,16,15,38,17.40
2014,09,16,15,39,17.40
2014,09,16,15,40,17.50
2014,09,16,15,41,17.60
2014,09,16,15,42,17.70
2014,09,16,15,43,17.80
2014,09,16,15,44,17.90
2014,09,16,15,45,18.00
2014,09,16,15,46,18.10
2014,09,16,15,47,18.20
2014,09,16,15,48,18.40
2014,09,16,15,49,18.50
2014,09,16,15,50,18.60
2014,09,16,15,51,18.70
2014,09,16,15,52,18.70
2014,09,16,15,53,18.80
2014,09,16,15,54,18.90
2014,09,16,15,55,18.90
2014,09,16,15,56,18.90
2014,09,16,15,57,18.80
2014,09,16,15,58,18.60
2014,09,16,15,59,18.40
2014,09,16,16,00,18.20
2014,09,16,16,01,17.90
2014,09,16,16,02,17.80
2014,09,16,16,03,17.80
2014,09,16,16,04,17.60
2014,09,16,16,05,17.50
2014,09,16,16,06,17.40
2014,09,16,16,07,17.40
2014,09,16,16,08,17.40
2014,09,16,16,09,17.40
2014,09,16,16,10,17.20
2014,09,16,16,11,17.00
2014,09,16,16,12,17.00
2014,09,16,16,13,16.90
2014,09,16,16,14,16.70
2014,09,16,16,15,16.70
2014,09,16,16,16,16.70
2014,09,16,16,17,16.80
2014,09,16,16,18,16.80
2014,09,16,16,19,16.80
2014,09,16,16,20,16.80
2014,09,16,16,21,16.90
2014,09,16,16,22,16.90
2014,09,16,16,23,16.90
2014,09,16,16,24,17.00
2014,09,16,16,25,17.00
2014,09,16,16,26,17.00
2014,09,16,16,27,16.90
2014,09,16,16,28,16.80
2014,09,16,16,29,16.90
2014,09,16,16,30,16.90
2014,09,16,16,31,17.00
2014,09,16,16,32,16.80
2014,09,16,16,33,16.60
2014,09,16,16,34,16.30
2014,09,16,16,35,16.20
2014,09,16,16,36,16.10
2014,09,16,16,37,16.10
2014,09,16,16,38,16.00
2014,09,16,16,39,15.90
2014,09,16,16,40,15.80
2014,09,16,16,41,15.80
2014,09,16,16,42,15.80
2014,09,16,16,43,15.90
2014,09,16,16,44,16.10
2014,09,16,16,45,16.10
2014,09,16,16,46,16.00
2014,09,16,16,47,15.80
2014,09,16,16,48,15.70
2014,09,16,16,49,15.60
2014,09,16,16,50,15.50
2014,09,16,16,51,15.50
2014,09,16,16,52,15.50
2014,09,16,16,53,15.60
2014,09,16,16,54,15.70
2014,09,16,16,55,15.70
2014,09,16,16,56,15.80
2014,09,16,16,57,15.80
2014,09,16,16,58,15.70
2014,09,16,16,59,15.60
2014,09,16,17,00,15.60
2014,09,16,17,01,15.60
2014,09,16,17,02,15.60
2014,09,16,17,03,15.60
2014,09,16,17,04,15.70
2014,09,16,17,05,15.70
2014,09,16,17,06,15.80
2014,09,16,17,07,15.70
2014,09,16,17,08,15.70
2014,09,16,17,09,15.60
2014,09,16,17,10,15.50
2014,09,16,17,11,15.50
2014,09,16,17,12,15.50
2014,09,16,17,13,15.50
2014,09,16,17,14,15.50
2014,09,16,17,15,15.50
2014,09,16,17,16,15.40
2014,09,16,17,17,15.40
2014,09,16,17,18,15.40
2014,09,16,17,19,15.50